Theta_e
319 318 319 319 318 319 318 318 317 317 317 317 317 319 319 320 320 319 319 319 319 319 319 320 321 321 314 303 301 310 321 324 321 318 312 310 305 299 293 294 295 293 297 302 308 311 310
319 319 318 318 318 318 318 319 319 318 317 317 317 317 318 319 319 319 319 318 318 318 318 319 321 320 307 295 309 310 309 319 318 315 310 310 306 305 298 296 294 295 298 300 306 307 311
319 318 318 318 317 318 319 318 318 317 316 316 316 316 317 318 319 319 318 318 318 317 317 319 320 314 304 301 310 307 309 314 316 315 309 310 308 302 301 296 298 296 293 295 299 304 306
317 318 318 318 318 318 318 318 317 316 316 316 316 316 317 317 318 318 317 317 318 318 319 318 320 308 298 312 306 306 306 312 316 316 314 313 308 304 301 301 296 293 292 288 295 302 302
317 317 317 317 317 317 317 318 317 316 316 316 316 316 317 317 317 317 317 317 318 319 318 319 307 302 295 312 304 305 304 306 312 312 312 313 306 300 298 290 287 289 283 286 291 300 300
317 317 317 316 316 316 317 317 316 316 316 316 316 315 316 316 316 317 317 317 316 314 311 312 309 296 300 298 303 304 305 308 305 307 305 301 297 291 290 287 281 283 285 285 288 295 297
316 317 316 315 316 315 316 316 316 315 316 316 316 316 316 316 316 316 310 304 298 297 300 297 297 298 301 304 305 304 305 303 302 300 293 296 289 284 288 289 289 288 285 284 288 295 294
315 316 315 315 316 316 316 316 315 315 315 316 316 315 315 315 315 315 307 300 300 301 293 302 302 302 304 304 299 302 305 296 296 290 294 291 286 292 295 294 291 288 284 285 289 293 294
314 315 316 316 316 316 316 316 316 315 315 315 315 315 314 313 313 308 303 302 307 304 292 298 301 300 301 303 298 298 301 297 294 291 292 289 293 297 294 291 288 286 285 285 286 290 291
315 315 316 316 316 315 315 315 315 315 315 314 315 315 314 313 307 304 302 308 307 303 285 289 295 299 302 302 295 303 302 297 294 291 293 290 295 293 291 289 288 283 290 289 288 286 282
313 315 315 315 315 315 315 315 315 314 314 314 314 313 313 311 302 301 304 306 304 297 271 291 294 304 301 295 296 297 302 298 291 292 290 288 290 290 289 289 290 287 291 289 288 284 282
313 315 315 315 315 314 314 314 315 314 314 314 313 312 311 306 303 304 306 303 301 282 271 286 295 294 293 295 295 297 297 298 297 292 291 290 294 292 291 292 291 292 288 287 286 283 276
314 314 315 315 314 314 313 313 314 314 314 313 312 311 307 306 300 306 304 299 282 277 289 287 289 292 291 290 292 293 292 289 287 281 281 287 289 291 293 289 290 289 283 275 275 274 276
314 314 314 314 314 313 313 313 313 314 314 312 311 310 307 306 306 305 300 288 278 286 286 292 291 291 288 290 289 291 288 286 288 287 281 280 278 288 292 288 286 285 283 277 274 274 276
314 314 314 314 314 313 312 312 313 313 313 313 309 303 301 303 306 303 292 280 281 285 290 290 291 286 285 289 287 286 285 286 286 287 281 280 280 290 291 291 289 285 281 285 279 277 276
313 313 314 313 313 313 312 311 312 312 313 312 299 300 301 303 303 299 288 286 286 292 292 291 285 286 282 285 285 284 283 286 287 288 286 284 279 287 290 290 289 285 286 280 278 275 274
313 313 313 313 312 312 312 311 312 312 312 311 302 296 303 303 301 291 283 283 289 294 292 289 286 285 286 285 284 283 284 288 289 288 286 284 282 281 286 285 284 283 281 281 281 279 275
312 311 312 313 312 312 311 311 311 311 311 306 299 291 303 302 292 285 284 287 293 290 292 290 290 288 286 286 285 285 285 288 290 289 284 284 282 278 282 285 287 285 283 282 278 277 277
311 311 311 312 312 312 311 311 310 310 310 298 294 294 301 298 285 284 288 289 289 288 288 288 288 289 287 285 282 285 288 294 292 289 285 285 280 275 279 282 283 282 284 284 282 280 277
311 311 311 312 312 312 312 311 310 309 310 298 292 287 295 294 290 288 286 287 286 289 288 289 287 287 286 284 286 284 285 291 293 291 296 290 281 279 276 279 281 280 281 283 282 275 277
312 312 312 312 312 312 312 311 310 310 309 298 292 288 290 283 290 289 288 287 286 287 288 287 286 286 284 282 283 283 285 287 290 294 289 287 280 278 280 281 281 281 282 282 279 282 280
312 311 311 310 310 311 311 311 310 310 308 296 288 290 290 288 290 289 289 288 289 289 289 287 285 288 286 283 285 285 286 285 284 287 285 286 281 280 278 281 279 279 280 281 282 283 281
312 311 310 310 310 309 310 310 310 309 304 294 294 293 290 286 288 287 287 288 290 290 292 291 289 287 287 288 289 288 290 289 286 283 284 283 281 280 277 280 281 279 282 281 280 282 284
311 311 309 310 310 309 309 310 310 309 303 297 296 293 289 284 286 288 289 290 290 290 288 291 290 288 290 292 291 289 287 288 287 287 285 282 281 280 277 280 274 283 287 286 283 284 284
312 311 311 311 310 310 309 309 310 309 307 296 295 294 289 285 287 287 288 288 288 289 289 291 292 291 292 290 285 283 282 283 286 286 285 283 281 278 277 277 282 285 285 284 283 283 285
312 312 312 311 310 310 309 309 309 309 308 297 295 297 292 286 286 290 286 286 284 284 285 290 291 292 291 288 285 279 277 280 279 281 284 284 282 279 278 276 276 284 286 287 287 280 286
313 312 312 312 312 311 310 310 309 309 309 300 297 299 293 287 291 288 285 285 289 287 285 287 288 288 291 284 282 279 279 282 279 280 279 279 278 277 276 276 280 286 286 287 279 282 288
307 307 307 307 308 309 310 311 310 310 309 302 298 299 294 287 289 292 292 288 289 289 285 286 287 287 285 283 282 282 279 281 279 281 281 280 277 276 276 275 274 287 285 283 286 287 287
304 304 304 304 304 304 305 307 308 309 310 307 298 300 300 296 293 293 296 297 294 293 291 288 287 286 288 283 282 282 281 281 281 278 282 280 284 281 282 281 287 286 288 288 289 288 288
Wind_Speed
7 7 8 9 9 9 10 9 9 9 8 8 8 8 9 10 10 10 11 11 12 12 12 13 13 13 4 3 2 5 9 6 1 1 1 3 2 2 1 3 2 4 3 2 3 4 5
6 7 7 8 9 11 11 12 10 10 9 7 7 7 8 9 10 11 11 11 11 11 10 11 13 12 3 3 4 8 8 2 1 0 3 2 2 4 4 4 3 0 6 4 1 3 3
7 8 8 9 9 11 12 11 12 10 9 7 6 7 7 8 10 11 11 12 11 10 10 10 11 4 1 4 4 7 6 2 2 1 0 2 2 2 2 5 1 2 2 0 4 4 5
6 7 8 9 10 11 12 12 12 10 9 7 6 6 7 7 8 10 11 12 11 9 10 9 10 3 3 4 3 5 5 4 2 1 3 6 4 1 2 5 5 5 6 4 4 6 4
6 7 8 9 10 11 11 12 11 10 9 8 7 7 8 8 8 10 11 13 12 10 9 8 4 2 5 7 4 4 2 3 3 3 4 5 2 0 5 2 4 6 4 3 1 6 3
6 7 8 8 9 9 10 10 10 9 8 8 8 8 9 8 8 10 12 13 9 7 3 2 2 3 5 5 4 5 3 3 2 3 5 3 4 3 4 5 4 1 3 1 3 6 2
5 6 8 8 8 8 10 11 10 9 8 7 8 8 8 7 8 8 7 4 6 5 6 1 5 2 5 6 1 3 3 4 3 3 3 3 6 2 5 3 2 4 3 1 4 4 5
5 6 6 7 8 9 10 10 11 10 9 8 9 8 7 7 7 7 2 5 2 2 6 5 5 4 4 1 3 3 3 4 4 3 4 5 1 5 4 4 4 4 2 5 5 5 7
4 5 6 7 8 10 11 11 12 11 9 8 8 7 6 6 5 3 3 2 3 1 0 6 4 3 3 1 3 4 3 4 2 5 3 1 5 5 3 3 1 1 4 4 4 2 1
4 5 6 7 8 9 11 11 12 12 10 9 7 7 6 6 3 3 2 5 3 2 5 6 3 3 2 1 3 2 3 1 4 3 5 4 5 4 2 1 0 0 4 4 4 5 5
3 5 6 8 9 10 11 12 13 12 9 7 7 6 4 7 2 2 3 5 3 4 7 6 5 1 2 1 3 2 1 2 2 4 4 6 4 4 2 2 1 5 3 4 2 3 3
3 5 6 7 9 10 10 11 13 13 9 6 6 5 4 2 2 1 3 3 4 8 4 7 4 4 4 1 2 2 1 1 2 3 2 6 1 2 3 3 3 3 2 6 5 3 3
3 5 6 8 9 10 11 12 13 14 10 6 5 6 4 1 1 3 2 4 7 7 3 7 4 3 3 3 2 1 2 3 1 5 4 5 3 3 1 3 2 2 6 3 5 5 6
3 5 7 8 9 11 11 12 13 14 13 7 4 4 3 0 2 3 3 6 9 3 4 3 3 7 3 1 3 2 3 3 2 2 1 2 8 3 4 2 2 1 5 6 5 4 5
1 3 6 8 10 11 12 12 12 12 12 9 5 2 2 1 2 3 5 7 5 3 2 6 8 3 5 3 1 1 3 2 2 2 2 2 4 2 1 3 1 1 0 2 4 2 2
0 2 4 7 9 10 11 12 12 13 11 7 2 2 2 2 3 4 6 3 4 3 1 1 2 2 3 6 5 1 2 2 2 0 2 2 4 2 2 1 2 2 2 2 3 2 4
1 2 4 6 8 9 11 13 14 15 16 4 3 3 2 2 3 5 4 5 4 3 3 3 2 3 3 3 2 3 3 2 3 5 2 1 1 5 2 5 5 1 2 2 2 5 3
2 1 4 6 7 9 10 12 14 16 15 4 2 2 2 2 4 1 1 3 1 3 3 3 2 4 3 3 4 2 2 4 1 1 3 2 3 4 9 3 3 4 3 4 5 4 3
4 2 3 6 6 8 10 12 13 15 13 2 2 2 2 2 3 2 3 2 3 2 3 2 3 4 0 3 2 3 3 1 1 0 1 2 2 5 8 4 2 4 5 5 2 2 6
4 3 3 5 5 6 8 11 13 13 13 3 3 1 3 4 1 3 1 4 2 3 3 3 3 1 2 3 5 4 3 1 1 1 1 1 1 6 6 5 3 4 3 5 6 3 2
7 6 4 4 5 6 6 8 12 14 13 3 2 4 3 2 3 3 2 2 2 3 3 3 3 5 4 3 3 4 3 4 2 0 0 2 4 4 7 10 6 8 10 7 8 9 10
8 6 5 6 7 5 6 7 10 13 9 3 2 2 2 2 1 4 4 5 7 4 7 5 5 3 6 6 7 5 2 3 4 1 1 1 4 2 6 8 5 6 11 10 10 6 9
9 8 7 5 6 6 6 5 7 11 6 2 1 2 4 3 1 4 6 7 6 5 5 5 8 3 5 12 8 7 6 4 4 2 4 3 2 2 6 3 7 8 7 7 5 5 8
8 7 7 8 8 7 6 4 3 6 6 2 1 2 3 5 3 6 3 6 7 7 5 3 6 5 5 2 3 2 3 6 6 6 6 3 1 2 5 5 3 7 3 5 8 7 8
9 9 8 8 8 7 6 6 4 2 3 2 1 3 2 4 4 5 8 6 5 5 5 5 6 6 3 3 2 5 4 2 1 2 4 5 4 3 2 2 9 3 1 2 1 5 0
9 9 9 9 9 9 11 9 8 5 6 3 2 2 3 1 7 4 4 5 6 4 4 5 0 1 3 3 2 5 5 6 4 1 3 4 2 3 0 2 5 2 2 2 2 5 3
6 2 2 3 5 7 9 10 8 8 10 5 2 3 4 3 6 3 5 5 4 2 3 1 3 2 2 3 4 5 6 6 5 7 6 3 1 5 4 4 9 7 3 1 2 3 0
12 10 8 6 5 6 6 7 8 9 6 6 4 5 5 4 6 4 4 5 2 2 5 3 3 1 2 4 5 6 5 7 3 6 9 10 9 5 3 3 9 7 2 5 6 3 2
14 13 11 9 8 8 9 8 8 7 8 12 4 4 4 5 6 6 6 15 11 9 2 4 4 5 6 3 2 0 4 2 5 5 1 3 9 8 11 10 6 7 8 5 5 5 5
Wind_Direction
54 47 31 21 13 9 1 357 350 341 334 327 325 334 340 336 331 329 327 335 335 342 347 351 349 340 2 7 331 306 321 349 111 108 287 337 341 345 285 213 325 172 270 319 218 192 229
35 41 33 20 8 7 8 360 355 346 342 335 336 329 335 337 329 324 323 329 333 334 338 339 344 334 17 45 292 332 344 340 301 83 345 342 299 277 277 266 153 298 256 240 231 288 208
36 33 23 16 9 8 8 7 356 351 343 337 336 323 329 335 326 324 323 320 323 329 327 333 341 332 18 240 343 315 322 288 203 226 289 261 282 26 302 300 276 212 221 62 218 205 235
39 26 22 15 12 10 12 7 1 352 345 348 336 324 321 324 324 322 319 314 311 313 312 317 328 1 270 260 291 342 349 333 25 283 292 281 260 250 222 295 343 147 90 135 239 150 268
45 26 20 16 16 14 12 9 6 358 351 343 335 330 323 319 321 317 315 308 298 298 297 294 1 50 319 315 342 305 20 329 276 330 299 299 2 51 354 38 24 9 174 168 153 215 135
43 34 23 21 16 15 15 13 6 7 357 344 337 329 322 318 315 317 314 300 280 318 304 193 234 12 335 307 300 327 296 351 331 342 348 10 40 49 26 55 189 53 109 117 197 204 180
42 34 35 16 4 6 13 9 8 5 357 347 338 330 320 316 316 329 353 14 16 353 32 250 281 231 279 287 339 320 326 350 358 36 31 328 56 199 234 214 228 295 323 329 273 205 146
49 29 27 21 358 3 5 11 6 5 358 346 338 332 330 322 322 332 32 69 104 206 328 291 263 274 255 278 320 301 28 28 28 339 313 18 285 245 260 283 273 251 271 283 275 230 178
43 33 14 20 1 6 2 7 3 3 0 345 337 335 338 333 328 19 77 64 348 65 119 301 260 277 279 67 316 305 30 338 320 340 332 209 277 323 165 282 297 218 171 235 224 36 125
62 33 16 17 3 13 5 4 7 3 358 341 333 338 346 324 33 314 39 324 346 105 62 301 340 292 322 278 329 300 357 88 339 312 347 292 324 333 277 157 3 257 266 255 225 133 197
52 35 23 17 9 12 10 3 6 360 355 342 325 336 3 42 188 70 283 322 331 64 48 288 298 275 322 356 270 329 324 22 286 292 60 262 320 345 300 245 209 221 282 285 195 133 83
68 30 25 17 11 13 11 5 1 3 354 350 331 335 350 47 51 240 313 350 51 45 302 325 307 316 349 221 262 323 7 360 250 316 307 245 255 206 252 290 242 306 338 32 52 74 38
59 35 22 15 10 12 12 9 6 7 9 358 343 340 351 107 223 319 14 47 39 80 342 305 302 333 323 265 274 230 260 301 209 41 345 327 284 280 215 304 323 89 59 4 4 8 215
29 32 22 16 13 7 12 10 11 7 4 353 350 348 321 286 318 12 60 51 62 291 288 336 314 308 262 296 259 240 308 303 219 56 32 89 334 332 356 259 217 323 141 151 190 191 242
51 35 24 20 14 10 7 8 4 4 359 346 336 2 346 269 358 61 72 52 202 213 267 314 321 338 317 319 252 322 215 249 315 204 168 344 276 276 226 324 357 293 253 186 107 357 41
125 14 31 18 22 9 8 3 1 358 350 337 74 47 299 321 63 68 74 215 218 216 280 334 323 20 315 316 346 342 303 288 326 63 111 268 306 235 285 4 263 265 160 53 8 196 251
169 10 5 17 15 15 7 5 359 357 350 146 53 46 258 28 73 53 113 227 242 221 194 177 228 290 283 281 262 299 306 336 8 316 318 192 149 288 352 194 192 355 238 148 143 156 197
222 336 350 5 9 7 10 6 4 360 357 60 94 14 315 72 52 49 143 201 277 244 205 253 202 221 257 306 301 280 268 226 346 269 323 333 172 261 233 281 202 181 220 177 131 236 220
238 272 327 342 359 0 2 5 5 5 15 71 115 236 335 24 125 285 263 255 211 220 241 222 250 218 197 271 308 242 290 205 231 70 192 340 300 332 339 359 330 238 208 172 127 81 215
229 250 287 310 333 350 357 356 360 2 359 76 84 5 327 41 330 154 198 245 235 197 251 223 255 261 288 255 207 281 285 275 195 249 163 100 199 194 214 231 210 273 261 234 152 134 234
219 221 239 279 310 333 346 352 352 350 349 99 74 241 188 254 269 179 150 290 243 240 218 196 260 218 206 282 277 229 240 301 179 49 105 171 248 204 250 253 243 246 244 220 202 224 197
224 231 253 289 303 313 331 348 350 347 355 83 151 139 17 260 255 172 188 234 204 226 162 231 210 196 192 214 213 245 205 211 252 168 229 190 274 304 284 274 230 258 249 233 229 229 258
221 230 267 285 296 302 308 337 357 354 19 64 323 335 103 266 202 130 216 220 221 171 237 193 196 189 225 240 234 240 219 232 213 208 206 190 230 324 261 334 322 289 233 215 212 209 202
234 245 261 234 248 260 296 304 348 21 62 142 228 95 99 265 191 205 233 202 223 215 229 236 174 165 232 110 299 269 237 244 229 238 201 181 170 214 275 327 242 243 190 191 202 246 222
249 232 233 244 249 257 269 293 281 161 80 79 294 103 172 246 223 280 258 232 272 245 238 224 219 203 138 57 359 331 328 324 152 32 184 188 140 273 269 266 296 284 221 154 136 282 306
239 251 254 249 230 235 244 240 254 230 158 98 260 141 119 161 245 227 241 215 230 224 308 232 107 148 85 121 133 212 222 224 244 210 26 70 77 155 350 242 262 265 199 164 195 289 325
242 271 308 314 297 279 272 268 263 255 184 140 250 171 97 245 274 197 223 214 180 161 205 271 176 161 94 151 194 199 230 199 199 190 180 144 154 206 226 259 280 256 234 206 162 235 315
63 67 55 45 30 9 347 316 293 275 236 141 227 181 148 218 276 264 294 254 280 197 199 204 76 268 82 178 180 225 198 222 186 193 182 171 164 199 137 208 278 173 93 186 207 189 208
54 54 45 30 17 14 8 2 20 354 305 198 233 191 180 226 256 228 237 249 236 245 204 219 215 177 194 127 215 240 236 206 195 227 106 229 193 187 183 211 230 195 198 211 186 173 196